Regional Weather Roundup
Issued by NWS Portland, ME

Current Version | Previous Version | Text Only | Print | Product List | Glossary Off
Versions: 1 2 3 4 5 6 7 8 9 10 11 12 13 14 15 16 17 18 19 20 21 22 23 24 25 26 27 28 29 30 31 32 33 34 35 36 37 38 39 40 41 42 43 44 45 46 47 48 49 50
000 ASUS41 KGYX 230810 RWRGYX WEATHER ROUNDUP FOR MAINE AND NEW HAMPSHIRE NATIONAL WEATHER SERVICE GRAY ME 300 AM EST TUE JAN 23 2018 MEZ002-005-006-010-012-015-018-020-021-024-026-027-029-230900- MAINE CITY SKY/WX TMP DP RH WIND PRES REMARKS PORTLAND CLOUDY 22 21 96 N9 30.16F FOG SANFORD MIX PCPN 22 21 96 NE13 30.12F FOG WCI 10 BAR HARBOR LGT SNOW 24 22 91 E7 30.23F VSB 3/4 WISCASSET CLOUDY 23 22 96 VRB5 30.18F FOG ROCKLAND LGT SNOW 27 25 92 NE12 30.18F FOG WCI 17 FRYEBURG CLOUDY 22 22 100 NE5 30.16F FOG LEWISTONAUBURN MIX PCPN 19 18 95 N12 30.17F FOG WCI 7 AUGUSTA CLOUDY 19 16 88 N9 30.19F FOG WATERVILLE LGT SNOW 18 16 92 NE12 30.15F FOG WCI 5 BANGOR LGT SNOW 19 16 88 NE7 30.24F FOG GREENVILLE N/A 14 13 95 SE12 30.10F WCI 0 MILLINOCKET SNOW 14 12 92 NE6 30.27F VSB 1/4 HOULTON LGT SNOW 13 8 81 NE5 30.28F VSB 1 PRESQUE ISLE LGT SNOW 10 7 87 NE5 30.30F FOG FRENCHVILLE LGT SNOW 5 2 87 E7 30.25S VSB 1 CARIBOU LGT SNOW 10 5 80 E5 30.28F $$ NHZ002-005-008-009-011-012-014-230900- NEW HAMPSHIRE CITY SKY/WX TMP DP RH WIND PRES REMARKS PORTSMOUTH FRZ DRZL 25 24 94 N6 30.10F FOG ROCHESTER CLOUDY 23 23 100 NE8 30.10F FOG NASHUA LGT SNOW 29 28 96 N5 30.11S FOG MANCHESTER FOG 28 26 92 N5 30.10F VSB 1 CONCORD CLOUDY 27 25 92 N6 30.10F FOG LACONIA LGT SNOW 24 23 96 NE9 30.11F FOG PLYMOUTH CLOUDY 27 26 96 CALM 30.10F FOG BERLIN CLOUDY 31 25 78 SE10 30.03F WHITEFIELD MOCLDY 39 31 72 S9G18 29.97F JAFFREY CLOUDY 28 28 100 CALM 30.03F FOG KEENE CLOUDY 30 29 96 N5 30.05F FOG LEBANON CLOUDY 29 28 96 CALM 30.04F MT WASHINGTON FRZ DRZL 27 27 100 SW48G55 N/A VSB 0 WCI 7 $$ VTZ005-007-008-230900- VERMONT CITY SKY/WX TMP DP RH WIND PRES REMARKS ST JOHNSBURY N/A 32 30 92 MISG 29.98F MONTPELIER CLOUDY 29 29 100 S8 30.00F BURLINGTON CLOUDY 36 32 85 SE7 29.89F $$ MAZ007-012-024-CTZ003-RIZ002-NYZ038-NYZ072-230900- SOUTHERN NEW ENGLAND AND NY CITY SKY/WX TMP DP RH WIND PRES REMARKS BOSTON DRIZZLE 35 34 96 N8 30.07F FOG WORCESTER FOG 29 28 96 NE7 30.02F VSB 1/4 NANTUCKET FOG 43 43 100 SE14 30.08F VSB 3/4 PROVIDENCE FOG 38 38 100 N6 30.06F VSB 1/4 HARTFORD DRZL/FOG 34 34 100 N7 30.02F VSB 1/2 ALBANY CLOUDY 39 34 82 S12 29.91F NEW YORK CITY FOG 36 36 100 NE8 29.95F VSB 1/8 $$ ANZ081-ANZ082-ANZ150-NHZ014-MEZ023>029-230900- COASTAL MARINE OBSERVATIONS STATION/POSITION TIME TEMP WIND PRES WAVE AIR SEA DIR/SP/G HT/PER (UTC) (F) (DEG/KT/KT) (MB) (FT/S) MOUNT DESERT ROC 0800 37 90/ 23/ 28 1022.4F MATINICUS ROCK 0700 38 100/ 21/ 22 1021.8F ISLE OF SHOALS 0700 28 10/ 4/ 4 1020.0F JEFFREYS LEDGE 0736 43 N/A 6/ 6 GEORGES BANK BUO 0650 41 54 1028.2 3/ 8 $$ .............KEY.............. WCI - WIND CHILL TC - TEMPERATURE IN CELSIUS VSB - VISIBILITY IN MILES HX - HEAT INDEX FAIR- INDICATES FEW OR NO CLOUDS BELOW 12,000 FT, WITH NO SIGNIFICANT WEATHER AND/OR OBSTRUCTIONS TO VISIBILITY.

USA.gov is the U.S. government's official web portal to all federal, state and local government web resources and services.